This is the latest recevied weather packets stored in our database for station/object YS1AHL-22. If no packets are shown the sender has not sent any weather packets the latest 1 day(s).
| Time | Temp. | Humidity | Pressure | Rain* | Wind** | Luminosity | Snow |
|---|---|---|---|---|---|---|---|
| 1778035232 | 12.22° C | 76% | 1007 hPa | 0 mm | - | - | - |
| 1778035171 | 12.22° C | 76% | 1007 hPa | 0 mm | - | - | - |
| 1778034631 | 12.22° C | 75% | 1006 hPa | 0 mm | - | - | - |
| 1778034570 | 12.22° C | 75% | 1006 hPa | 0 mm | - | - | - |
| 1778034030 | 12.78° C | 73% | 1006 hPa | 0 mm | - | - | - |
| 1778033970 | 12.78° C | 73% | 1006 hPa | 0 mm | - | - | - |
| 1778033369 | 12.78° C | 72% | 1006 hPa | 0 mm | - | - | - |
| 1778032769 | 12.78° C | 71% | 1007 hPa | 0 mm | - | - | - |
| 1778032229 | 13.33° C | 69% | 1007 hPa | 0 mm | - | - | - |
| 1778032168 | 13.33° C | 69% | 1007 hPa | 0 mm | - | - | - |
| 1778031628 | 13.89° C | 67% | 1007 hPa | 0 mm | - | - | - |
| 1778031027 | 13.33° C | 65% | 1005 hPa | 0.25 mm | - | - | - |
| 1778030967 | 13.33° C | 65% | 1005 hPa | 0.25 mm | - | - | - |
| 1778030366 | 12.78° C | 61% | 1005 hPa | 0 mm | - | - | - |
| 1778029826 | 12.22° C | 57% | 1005 hPa | 0 mm | - | - | - |
| 1778029766 | 12.22° C | 57% | 1005 hPa | 0 mm | - | - | - |
| 1778029165 | 11.67° C | 57% | 1006 hPa | 0 mm | - | - | - |
| 1778028625 | 11.11° C | 57% | 1006 hPa | 0 mm | - | - | - |
| 1778028564 | 11.11° C | 57% | 1006 hPa | 0 mm | - | - | - |
| 1778028024 | 11.11° C | 58% | 1005 hPa | 0 mm | - | - | - |
| 1778027964 | 11.11° C | 58% | 1005 hPa | 0 mm | - | - | - |
| 1778026823 | 11.11° C | 58% | 1003 hPa | 0 mm | - | - | - |
| 1778026763 | 11.11° C | 58% | 1003 hPa | 0 mm | - | - | - |
| 1778025622 | 11.11° C | 59% | 1004 hPa | 0 mm | - | - | - |
| 1778023820 | 10° C | 61% | 1003 hPa | 0 mm | - | - | - |
* Rain latest hour (hover to see other rain measurements)
** Current wind speed in m/s (hover to see current wind gust speed)